Location: Ida Center
(41.8662°N, 83.5713°W)
Time: 13:45:20
(UTC+00:00)

Cosmos 2082 - Pass Details

Date: 17 November 2019
Orbit: 835 x 854 km, 71.0° (Epoch: 06 December)

Event Time Altitude Azimuth Distance (km) Brightness Sun altitude
Rises 23:43:14 0° 333° (NNW) 3,393 7.1 -17.0°
Reaches altitude 10° 23:45:41 10° 331° (NNW) 2,455 6.3 -17.4°
Maximum altitude 23:51:15 67° 250° (WSW) 906 4.0 -18.4°
Drops below altitude 10° 23:56:48 10° 169° (SSE) 2,442 6.1 -19.5°
Sets 23:59:15 0° 166° (SSE) 3,374 6.8 -19.9°
